Powrót do katalogu

CZ-6A DEB

AktywnyPO
NORAD 60768·DEBRIS·🇨🇳 China

Wystrzelony Aug 6, 2024 z Taiyuan Satellite Launch Center

Loading…

Następne Przeloty (najbliższe 24 godziny)

TLE

ŚwieżeSource: Space-Track

Epoka: Sep 14, 2026, 11:42 UTC

1 60768U 24140ET  26257.48815630  .00002459  00000-0  49082-3 0  9991
2 60768  89.0866 268.0262 0109795 317.1582  42.1111 14.57886179111009

Śledź CZ-6A DEB w czasie rzeczywistym z AllMySat

Download on the App Store